[[{"header":{"parameterUnit":"m.s-1","parameterCategory":2,"la1":30.2991,"la2":30.254,"lo1":-89.0895,"lo2":-89.0444,"dy":0.0017,"dx":0.0017,"nx":28,"ny":28,"refTime":"2023-09-21T21:00:00:Z","depth":"0","parameterNumber":2,"parameterNumberName":"U-component_of_CURRENTS"},"data":[0,0,0,0,0,0,0,0,0,0,0,0,0,0,0,0,0,0,0,0,0,0,0,0,0,0,0,0,0,0,0,0,0,0,0,0,0,0,0,0,0,0,0,0,0,0,0,0,0,0,0,0,0,0,0,0,0,0,0.2584,0.2584,0,0.2582,0.2581,0.258,0.2534,0.2533,0.2533,0.2532,0.2458,0.2457,0.2455,0,0,0,0,0,0,0,0,0,0,0,0,0,0.2539,0.2539,0.2584,0.2584,0.2585,0.2582,0.2581,0.258,0.2534,0.2533,0.2532,0.2532,0.2459,0.2457,0.2455,0,0,0,0,0,0,0,0,0,0,0,0,0,0.2543,0.2539,0.2583,0.2566,0.2565,0.2582,0.2581,0.258,0.2534,0.2533,0.2532,0.2531,0.2459,0.2457,0.2455,0.2459,0,0,0.2448,0.2448,0,0,0,0,0,0,0,0,0.2543,0.2544,0.2568,0.2567,0.2566,0.2563,0.2538,0.2538,0.2534,0.2539,0.2532,0.2531,0.2492,0.2487,0.248,0.2456,0.2453,0.2448,0.2447,0.2446,0.2445,0,0,0,0,0,0,0,0.2543,0.2544,0.2576,0.2569,0.2568,0.2556,0.2555,0.2538,0.2514,0.2538,0.2537,0.2547,0.2489,0.2482,0.2478,0.2452,0.2448,0.2446,0.2445,0.2444,0.2458,0.2459,0,0,0,0,0,0,0.2558,0.2544,0.2576,0.2577,0.256,0.2558,0.2557,0.2559,0.2515,0.251,0.2548,0.2545,0.2486,0.248,0.2475,0.2499,0.2446,0.2444,0.2443,0.2456,0.2458,0.246,0,0,0,0,0,0,0.2557,0.2561,0.2576,0.2566,0.2568,0.2561,0.2564,0.256,0.2554,0.2525,0.2517,0.2547,0.2485,0.2478,0.2467,0.2495,0.2443,0.2441,0.2454,0.2457,0.2459,0.2534,0,0,0,0,0,0,0.2556,0.256,0.2564,0.2567,0.2569,0.2588,0.2565,0.2561,0.2565,0.2561,0.2521,0.2513,0.2484,0.2471,0.2465,0.2491,0.2439,0.2452,0.2455,0.2458,0.253,0.2539,0.2547,0,0,0,0,0,0.2554,0.2563,0.2564,0.2568,0.2575,0.2589,0.2588,0.2575,0.2566,0.2565,0.2544,0.2514,0.2487,0.247,0.2463,0.2489,0.2451,0.2455,0.2458,0.2526,0.2537,0.2547,0,0,0,0,0,0,0.2542,0.256,0.256,0.2573,0.2584,0.2583,0.2587,0.2583,0.2567,0.2562,0.2526,0.2518,0.2523,0.2498,0.2481,0.2505,0.2468,0.247,0.2522,0.2532,0.254,0.2549,0.2438,0,0,0,0,0,0.2546,0.2557,0.2572,0.2583,0.259,0.2591,0.2595,0.2591,0.2584,0.2576,0.2553,0.2537,0.2535,0.2525,0.2513,0.2519,0.2512,0.2536,0.2545,0.2552,0.2557,0.2575,0.2586,0.2472,0.2472,0.2472,0,0,0.2549,0.2559,0.2566,0.2583,0.2587,0.2607,0.2588,0.2601,0.2615,0.2571,0.2573,0.2562,0.2544,0.2555,0.2555,0.2535,0.2584,0.2557,0.2563,0.2563,0.258,0.2591,0.2601,0.2475,0.2474,0.2474,0,0,0.2565,0.2566,0.2585,0.2596,0.2616,0.2619,0.2627,0.2633,0.2628,0.2637,0.2619,0.2627,0.2608,0.2609,0.2607,0.2657,0.263,0.2657,0.2703,0.2722,0.2731,0.2739,0.2756,0.2765,0.2659,0.266,0.266,0,0.2568,0.2589,0.2592,0.2615,0.2628,0.2629,0.2652,0.2656,0.2657,0.2662,0.2645,0.2656,0.2638,0.2669,0.269,0.2676,0.2681,0.2663,0.2733,0.274,0.2747,0.2763,0.2772,0.2664,0.2663,0.2663,0.2662,0,0.2604,0.2618,0.263,0.2658,0.2672,0.269,0.2705,0.2715,0.2713,0.2718,0.2742,0.273,0.2737,0.2744,0.273,0.2781,0.2767,0.2743,0.2705,0.2763,0.2776,0.2784,0.267,0.2668,0.2667,0.2666,0,0,0.2618,0.2649,0.2654,0.2663,0.2694,0.2705,0.2738,0.2762,0.2779,0.279,0.282,0.2833,0.283,0.283,0.2823,0.2844,0.2903,0.2821,0.282,0.2836,0.295,0.284,0.2837,0.2891,0.2893,0.2894,0.2944,0,0.2644,0.268,0.2695,0.2727,0.2743,0.2757,0.2781,0.2805,0.2817,0.2845,0.2861,0.2882,0.2863,0.2875,0.2897,0.29,0.2926,0.2892,0.2893,0.2893,0.2785,0.2843,0.2691,0.2713,0.2951,0.2952,0.2953,0,0.2677,0.2692,0.2724,0.2745,0.2754,0.2776,0.2809,0.2833,0.2878,0.2889,0.2926,0.2937,0.2986,0.2955,0.2997,0.2977,0.2975,0.2974,0.2975,0.2848,0.2796,0.2691,0.2718,0.2648,0.2965,0.2964,0.2963,0,0.2674,0.271,0.2727,0.2738,0.277,0.2786,0.2806,0.2845,0.2861,0.2925,0.2947,0.3,0.3017,0.3043,0.3041,0.3028,0.3078,0.3052,0.2955,0.2948,0.2804,0.278,0.2755,0.3086,0.3086,0.3086,0.3086,0,0.269,0.2705,0.2722,0.2733,0.2749,0.2778,0.2805,0.2834,0.2883,0.2904,0.2966,0.2993,0.3039,0.3068,0.3073,0.3034,0.3101,0.2974,0.2954,0.2826,0.2804,0.2722,0.2705,0.3087,0.3087,0.3087,0.3086,0,0.2688,0.2703,0.2717,0.2741,0.2746,0.2758,0.2793,0.2807,0.2862,0.2899,0.2925,0.2995,0.3023,0.3059,0.3092,0.3043,0.2939,0.3009,0.2853,0.2812,0.2617,0.2609,0.2472,0.2399,0.2908,0.2905,0.2903,0,0.269,0.2696,0.2708,0.2702,0.2712,0.2731,0.2737,0.2789,0.2802,0.2885,0.2895,0.2955,0.2961,0.2974,0.2919,0.2903,0.2851,0.2742,0.2675,0.2591,0.257,0.2491,0.2436,0.2533,0.2528,0.2524,0.2521,0,0.2683,0.2684,0.2689,0.2675,0.2673,0.2675,0.2689,0.2697,0.2753,0.278,0.2801,0.2823,0.2819,0.2713,0.2688,0.2666,0.2581,0.2654,0.2613,0.231,0.2178,0.2102,0.253,0.2485,0.2489,0.2492,0.2493,0.2495,0.2663,0.2654,0.2645,0.2623,0.2621,0.2597,0.2557,0.2574,0.2576,0.2549,0.2648,0.2593,0.2549,0.2473,0.2438,0.2264,0.2307,0.217,0.2184,0.2125,0.1989,0.233,0.2225,0.2227,0.2228,0.223,0.2231,0,0.2607,0.2597,0.2585,0.254,0.2496,0.2521,0.2492,0.2417,0.2355,0.2369,0.234,0.225,0.2144,0.2107,0.1943,0.1817,0.1752,0.1772,0.1653,0.1636,0.1978,0.1895,0.1655,0.1655,0.1655,0.1655,0.1655,0.1655,0.2574,0.2529,0.251,0.2409,0.2377,0.2265,0.2217,0.2124,0.2088,0.1951,0.1862,0.1852,0.1873,0.176,0.1592,0.1541,0.1433,0.1316,0.1375,0.1647,0.1686,0.1724,0.1641,0.1352,0.1352,0.0932,0.0929,0.0927]},{"header":{"parameterUnit":"m.s-1","parameterCategory":2,"la1":30.2991,"la2":30.254,"lo1":-89.0895,"lo2":-89.0444,"dy":0.0017,"dx":0.0017,"nx":28,"ny":28,"refTime":"2023-09-21T21:00:00:Z","depth":"0","parameterNumber":3,"parameterNumberName":"V-component_of_CURRENTS"},"data":[0,0,0,0,0,0,0,0,0,0,0,0,0,0,0,0,0,0,0,0,0,0,0,0,0,0,0,0,0,0,0,0,0,0,0,0,0,0,0,0,0,0,0,0,0,0,0,0,0,0,0,0,0,0,0,0,0,0,0.0223,0.0223,0,0.0208,0.0207,0.0207,0.0203,0.0203,0.0203,0.0203,0.0175,0.0175,0.0174,0,0,0,0,0,0,0,0,0,0,0,0,0,0.0234,0.0234,0.0223,0.0223,0.0222,0.0208,0.0207,0.0207,0.0203,0.0203,0.0203,0.0203,0.0176,0.0175,0.0174,0,0,0,0,0,0,0,0,0,0,0,0,0,0.0226,0.0234,0.0223,0.0217,0.0216,0.0208,0.0207,0.0207,0.0203,0.0203,0.0203,0.0203,0.0176,0.0175,0.0174,0.017,0,0,0.0171,0.017,0,0,0,0,0,0,0,0,0.0227,0.0226,0.0218,0.0218,0.0217,0.0206,0.0201,0.0194,0.0203,0.021,0.0203,0.0203,0.0183,0.0182,0.0182,0.0168,0.0167,0.0171,0.017,0.017,0.0169,0,0,0,0,0,0,0,0.0227,0.0227,0.0219,0.0218,0.0217,0.021,0.0209,0.02,0.0198,0.0209,0.0208,0.0204,0.0183,0.0183,0.0181,0.0167,0.0171,0.017,0.0169,0.0169,0.014,0.014,0,0,0,0,0,0,0.0227,0.0227,0.0219,0.0218,0.022,0.021,0.0209,0.0211,0.0199,0.0196,0.0204,0.0204,0.0184,0.0182,0.018,0.0173,0.017,0.0169,0.0168,0.014,0.014,0.014,0,0,0,0,0,0,0.0227,0.0227,0.022,0.0221,0.0219,0.021,0.0212,0.021,0.0209,0.0195,0.0193,0.0203,0.0184,0.0181,0.0173,0.0172,0.0168,0.0167,0.014,0.014,0.014,0.0161,0,0,0,0,0,0,0.0228,0.0227,0.0229,0.0221,0.0219,0.0217,0.0211,0.021,0.0205,0.0205,0.0193,0.0191,0.0184,0.0174,0.0172,0.0171,0.0167,0.014,0.014,0.014,0.016,0.0161,0.0162,0,0,0,0,0,0.0228,0.0231,0.0229,0.0228,0.0221,0.0217,0.0216,0.021,0.0205,0.0208,0.0199,0.0191,0.017,0.0174,0.0171,0.0169,0.0141,0.014,0.014,0.016,0.0161,0.0162,0,0,0,0,0,0,0.0235,0.0231,0.0228,0.0229,0.0224,0.0216,0.0216,0.021,0.0205,0.0204,0.0191,0.0188,0.018,0.0171,0.0174,0.0159,0.0153,0.0152,0.0169,0.017,0.0171,0.0184,0.0166,0,0,0,0,0,0.0237,0.024,0.0233,0.0233,0.0232,0.0224,0.0221,0.0217,0.021,0.0208,0.0199,0.0187,0.0176,0.0171,0.0161,0.0154,0.0155,0.0149,0.015,0.0151,0.0159,0.0157,0.0159,0.0138,0.0138,0.0138,0,0,0.0238,0.0237,0.0238,0.0235,0.0232,0.0233,0.0223,0.0221,0.0222,0.0205,0.0204,0.0191,0.0175,0.0168,0.0163,0.016,0.0158,0.015,0.0151,0.0159,0.0157,0.0159,0.0161,0.0138,0.0138,0.0138,0,0,0.0244,0.0243,0.0248,0.0246,0.0242,0.0239,0.0239,0.0232,0.023,0.0225,0.0212,0.0199,0.0186,0.0173,0.0165,0.0164,0.0163,0.0159,0.0174,0.0172,0.0174,0.0175,0.0185,0.0187,0.0158,0.0159,0.0159,0,0.0246,0.0254,0.0248,0.0252,0.0254,0.0243,0.0251,0.0246,0.0236,0.0239,0.0228,0.021,0.0188,0.0182,0.0177,0.0166,0.0173,0.0172,0.0174,0.0176,0.0177,0.0187,0.0189,0.0159,0.0159,0.0159,0.0159,0,0.0255,0.0262,0.0265,0.0271,0.0271,0.0277,0.027,0.027,0.0265,0.0261,0.0256,0.023,0.022,0.0205,0.0189,0.0187,0.0191,0.0177,0.0175,0.0181,0.019,0.0192,0.0161,0.0161,0.016,0.016,0,0,0.0264,0.0272,0.0275,0.0288,0.0285,0.0293,0.0292,0.0298,0.0313,0.0292,0.0312,0.0268,0.0258,0.0247,0.0223,0.0213,0.0217,0.0201,0.02,0.0217,0.0229,0.022,0.0222,0.0209,0.021,0.021,0.0234,0,0.0278,0.0298,0.0295,0.0318,0.0332,0.0326,0.0334,0.0336,0.0335,0.0352,0.0322,0.0331,0.0273,0.0278,0.0252,0.0237,0.0224,0.0213,0.0215,0.0215,0.0212,0.0224,0.0243,0.0264,0.0236,0.0236,0.0236,0,0.0292,0.0309,0.0335,0.0361,0.0367,0.0378,0.0405,0.0411,0.0419,0.0422,0.0412,0.0399,0.038,0.0337,0.0296,0.0297,0.0261,0.024,0.0241,0.0228,0.021,0.0252,0.0269,0.0206,0.024,0.024,0.0239,0,0.0317,0.0339,0.0368,0.0375,0.0397,0.0414,0.0427,0.0437,0.0463,0.0477,0.0509,0.047,0.0478,0.0422,0.0358,0.0336,0.0331,0.0294,0.0251,0.0251,0.0264,0.0264,0.0227,0.0265,0.0264,0.0264,0.0264,0,0.0338,0.0362,0.0388,0.0406,0.0456,0.0453,0.0504,0.051,0.0541,0.0598,0.0553,0.06,0.0501,0.0483,0.0404,0.0344,0.0361,0.0263,0.0256,0.0272,0.0272,0.0215,0.0172,0.0265,0.0265,0.0265,0.0265,0,0.0359,0.0371,0.0415,0.0452,0.0471,0.0509,0.0565,0.0602,0.0623,0.0701,0.0718,0.071,0.0692,0.0594,0.0522,0.0417,0.032,0.0326,0.0355,0.035,0.0228,0.0186,0.0142,0.0111,0.0281,0.0281,0.0281,0,0.0374,0.0398,0.0457,0.0495,0.0517,0.0573,0.0616,0.0645,0.0696,0.0784,0.0836,0.0842,0.0871,0.0754,0.0586,0.0455,0.036,0.0354,0.0293,0.0233,0.0181,0.0143,0.0118,0.0326,0.0326,0.0326,0.0327,0,0.041,0.043,0.0467,0.0543,0.06,0.0668,0.0735,0.0792,0.085,0.093,0.1037,0.1075,0.0972,0.0853,0.0647,0.054,0.0311,0.0354,0.0286,0.021,0.0173,0.0139,0.0305,0.0329,0.0329,0.0329,0.0328,0.0328,0.0443,0.0476,0.0527,0.0598,0.0668,0.0759,0.0824,0.0912,0.1024,0.1149,0.1183,0.1258,0.1065,0.08,0.0652,0.036,0.0342,0.0255,0.0211,0.0181,0.0139,0.0311,0.0323,0.0323,0.0323,0.0323,0.0322,0,0.0483,0.0515,0.058,0.0669,0.0748,0.0779,0.0901,0.0974,0.1122,0.1242,0.1341,0.1295,0.1081,0.0818,0.0433,0.0247,0.017,0.0144,0.0098,0.0078,0.0237,0.0226,0.0223,0.0223,0.0223,0.0223,0.0223,0.0223,0.0505,0.0563,0.059,0.0721,0.0788,0.09,0.0975,0.109,0.1191,0.133,0.1374,0.1392,0.12,0.0591,0.0205,0.012,-0.0005,-0.0032,-0.01,0.0009,0.0016,0.0023,0.0002,-0.0048,-0.0048,-0.023,-0.0232,-0.0233]}],[{"header":{"parameterUnit":"m.s-1","parameterCategory":2,"la1":30.2991,"la2":30.254,"lo1":-89.0895,"lo2":-89.0444,"dy":0.0017,"dx":0.0017,"nx":28,"ny":28,"refTime":"2023-09-21T21:00:00:Z","depth":"2","parameterNumber":2,"parameterNumberName":"U-component_of_CURRENTS"},"data":[0,0,0,0,0,0,0,0,0,0,0,0,0,0,0,0,0,0,0,0,0,0,0,0,0,0,0,0,0,0,0,0,0,0,0,0,0,0,0,0,0,0,0,0,0,0,0,0,0,0,0,0,0,0,0,0,0,0,0.1801,0.1802,0,0.182,0.182,0.182,0.1834,0.1834,0.1834,0.1835,0.1854,0.1854,0.1854,0,0,0,0,0,0,0,0,0,0,0,0,0,0.1784,0.1784,0.1801,0.1802,0.1802,0.182,0.182,0.182,0.1834,0.1834,0.1835,0.1835,0.1853,0.1854,0.1854,0,0,0,0,0,0,0,0,0,0,0,0,0,0.1796,0.1784,0.1801,0.1811,0.1812,0.182,0.182,0.182,0.1834,0.1834,0.1835,0.1835,0.1853,0.1854,0.1854,0.1855,0,0,0.1856,0.1857,0,0,0,0,0,0,0,0,0.1796,0.1797,0.1809,0.181,0.1811,0.1825,0.1821,0.1832,0.1834,0.1826,0.1835,0.1835,0.1844,0.1845,0.1849,0.1856,0.1857,0.1856,0.1857,0.1857,0.1857,0,0,0,0,0,0,0,0.1795,0.1796,0.1809,0.1809,0.1811,0.1816,0.1818,0.1823,0.1834,0.1827,0.1828,0.1829,0.1844,0.1848,0.1849,0.1857,0.1856,0.1857,0.1857,0.1857,0.1901,0.1902,0,0,0,0,0,0,0.1791,0.1795,0.1808,0.1809,0.1803,0.1816,0.1818,0.182,0.1834,0.1836,0.1829,0.183,0.1847,0.1848,0.185,0.1887,0.1857,0.1858,0.1858,0.19,0.1901,0.1902,0,0,0,0,0,0,0.1791,0.1792,0.1808,0.1803,0.1805,0.1816,0.1819,0.1821,0.1835,0.1836,0.1838,0.1843,0.1847,0.1849,0.1877,0.1886,0.1858,0.1858,0.1899,0.19,0.1901,0.1938,0,0,0,0,0,0,0.179,0.1792,0.1793,0.1802,0.1805,0.1818,0.1818,0.1821,0.1835,0.1837,0.1848,0.1849,0.1847,0.1876,0.1877,0.1887,0.1859,0.1898,0.19,0.1901,0.1936,0.194,0.1944,0,0,0,0,0,0.179,0.1783,0.1793,0.1794,0.1805,0.1819,0.1821,0.1829,0.1836,0.1843,0.1862,0.185,0.1886,0.1878,0.1879,0.1888,0.1897,0.1899,0.1901,0.1934,0.194,0.1944,0,0,0,0,0,0,0.1779,0.1784,0.1795,0.1792,0.181,0.1821,0.1824,0.1837,0.1857,0.1864,0.1866,0.1869,0.1894,0.1889,0.188,0.1905,0.1887,0.1889,0.1911,0.1916,0.192,0.1941,0.1859,0,0,0,0,0,0.1777,0.1777,0.179,0.1794,0.1799,0.1817,0.1824,0.1837,0.1855,0.1864,0.1872,0.1884,0.19,0.1908,0.1916,0.1934,0.1947,0.1939,0.1943,0.1946,0.1964,0.2005,0.2015,0.1908,0.1908,0.1908,0,0,0.1776,0.178,0.1781,0.1793,0.1805,0.1818,0.1822,0.184,0.1861,0.1863,0.1891,0.1901,0.1909,0.1931,0.1941,0.193,0.1981,0.1949,0.1952,0.1968,0.2008,0.2019,0.2028,0.1909,0.1909,0.1908,0,0,0.1773,0.1778,0.1777,0.1794,0.1816,0.1824,0.1833,0.1853,0.1871,0.1905,0.1911,0.1937,0.1951,0.1964,0.1972,0.2005,0.2003,0.1998,0.2036,0.2075,0.2085,0.2093,0.2112,0.2122,0.1998,0.1999,0.1999,0,0.177,0.1777,0.1782,0.1795,0.1812,0.1829,0.1846,0.1865,0.1897,0.1919,0.1919,0.197,0.197,0.2012,0.2024,0.2015,0.2035,0.2015,0.2082,0.2091,0.2099,0.2116,0.2127,0.2,0.2,0.2,0.2,0,0.1785,0.1786,0.179,0.181,0.1828,0.1847,0.1875,0.1898,0.1921,0.1945,0.1997,0.2016,0.2046,0.2046,0.2048,0.2103,0.2095,0.2084,0.2071,0.2112,0.2127,0.2138,0.2003,0.2003,0.2002,0.2002,0,0,0.1769,0.1793,0.1791,0.1806,0.1843,0.1857,0.1895,0.1932,0.1965,0.2002,0.2049,0.2087,0.2105,0.2117,0.2122,0.216,0.2223,0.2153,0.2154,0.2175,0.2307,0.2226,0.2229,0.2229,0.2232,0.2233,0.229,0,0.1776,0.1792,0.1811,0.1835,0.1844,0.1883,0.1919,0.1963,0.1997,0.2041,0.2084,0.2127,0.2128,0.2152,0.2192,0.2224,0.2255,0.2209,0.2262,0.2263,0.2189,0.224,0.2041,0.2069,0.23,0.2302,0.2303,0,0.1783,0.1787,0.1817,0.1848,0.1859,0.1888,0.1951,0.1991,0.2057,0.2086,0.2142,0.2172,0.2244,0.2228,0.2323,0.2298,0.2309,0.2328,0.233,0.2253,0.2202,0.2067,0.2079,0.2321,0.2319,0.2318,0.2317,0,0.1764,0.1787,0.1812,0.183,0.1876,0.1908,0.194,0.2008,0.2057,0.2123,0.2162,0.2237,0.2281,0.2337,0.2378,0.2362,0.2469,0.244,0.2376,0.2369,0.2209,0.2185,0.2498,0.2498,0.2498,0.2498,0.2498,0,0.1759,0.1765,0.1809,0.1819,0.1854,0.1908,0.1964,0.2,0.2085,0.2131,0.2192,0.2236,0.2316,0.2378,0.2406,0.2432,0.2492,0.2401,0.2388,0.2213,0.2189,0.2414,0.2404,0.25,0.2499,0.2499,0.2499,0,0.1731,0.1759,0.1788,0.1838,0.1844,0.1887,0.196,0.2002,0.2088,0.2151,0.2181,0.2264,0.2335,0.2403,0.2478,0.2454,0.2491,0.2472,0.2252,0.2212,0.2354,0.2345,0.2415,0.2413,0.2411,0.2409,0.2408,0,0.1709,0.1732,0.1789,0.1806,0.1828,0.188,0.1903,0.1985,0.2026,0.2153,0.2172,0.2271,0.2285,0.2374,0.2369,0.24,0.2459,0.2209,0.2135,0.237,0.2351,0.2345,0.2338,0.1935,0.193,0.1926,0.1923,0,0.1675,0.1729,0.1745,0.1777,0.1805,0.1829,0.1867,0.1899,0.1999,0.2047,0.2099,0.2133,0.2201,0.2125,0.2163,0.2153,0.2193,0.2123,0.2447,0.1982,0.1921,0.1901,0.191,0.1886,0.189,0.1892,0.1894,0.1896,0.1652,0.167,0.1711,0.1735,0.1758,0.1759,0.1753,0.1788,0.182,0.1866,0.1954,0.194,0.1958,0.1912,0.1863,0.1836,0.199,0.1891,0.1903,0.1919,0.1848,0.1787,0.1713,0.1715,0.1717,0.1719,0.1721,0,0.161,0.163,0.1653,0.1671,0.1653,0.1698,0.1704,0.1675,0.1649,0.1703,0.172,0.1585,0.1529,0.1575,0.1469,0.146,0.144,0.1399,0.1354,0.1392,0.1425,0.1328,0.1055,0.1053,0.1051,0.1049,0,0,0.1584,0.1576,0.1581,0.1536,0.1556,0.1517,0.1502,0.1456,0.1457,0.1398,0.1381,0.1486,0.1532,0.1285,0.1241,0.113,0.1254,0.1082,0.1618,0.1604,0.1635,0.1712,0.1606,0,0,0,0,0]},{"header":{"parameterUnit":"m.s-1","parameterCategory":2,"la1":30.2991,"la2":30.254,"lo1":-89.0895,"lo2":-89.0444,"dy":0.0017,"dx":0.0017,"nx":28,"ny":28,"refTime":"2023-09-21T21:00:00:Z","depth":"2","parameterNumber":3,"parameterNumberName":"V-component_of_CURRENTS"},"data":[0,0,0,0,0,0,0,0,0,0,0,0,0,0,0,0,0,0,0,0,0,0,0,0,0,0,0,0,0,0,0,0,0,0,0,0,0,0,0,0,0,0,0,0,0,0,0,0,0,0,0,0,0,0,0,0,0,0,0.009,0.009,0,0.0077,0.0077,0.0076,0.0057,0.0057,0.0056,0.0056,0.0034,0.0034,0.0034,0,0,0,0,0,0,0,0,0,0,0,0,0,0.0084,0.0084,0.009,0.009,0.0089,0.0077,0.0077,0.0076,0.0057,0.0057,0.0056,0.0056,0.0034,0.0034,0.0034,0,0,0,0,0,0,0,0,0,0,0,0,0,0.008,0.0084,0.009,0.0078,0.0077,0.0077,0.0077,0.0076,0.0057,0.0057,0.0056,0.0055,0.0034,0.0034,0.0033,0.0042,0,0,0.0032,0.0032,0,0,0,0,0,0,0,0,0.0081,0.0081,0.008,0.0079,0.0077,0.0068,0.0066,0.0064,0.0057,0.0065,0.0056,0.0055,0.0045,0.0043,0.0043,0.0041,0.004,0.0032,0.0032,0.0032,0.0032,0,0,0,0,0,0,0,0.0081,0.0081,0.0085,0.008,0.0078,0.0069,0.0068,0.0066,0.0058,0.0064,0.0063,0.0061,0.0044,0.0043,0.0042,0.004,0.0032,0.0032,0.0032,0.0032,0.0028,0.0028,0,0,0,0,0,0,0.0084,0.0081,0.0085,0.0084,0.0078,0.0069,0.0068,0.0072,0.0058,0.0056,0.0061,0.006,0.0044,0.0042,0.0041,0.005,0.0032,0.0032,0.0031,0.0027,0.0028,0.0028,0,0,0,0,0,0,0.0084,0.0084,0.0086,0.0082,0.0081,0.007,0.0074,0.0072,0.0067,0.0056,0.0053,0.0059,0.0043,0.0042,0.0037,0.0049,0.0031,0.0031,0.0027,0.0027,0.0028,0.0067,0,0,0,0,0,0,0.0084,0.0085,0.009,0.0082,0.0082,0.0091,0.0074,0.0072,0.0067,0.0065,0.0053,0.0051,0.0043,0.0038,0.0037,0.0048,0.0031,0.0027,0.0027,0.0028,0.0066,0.0069,0.0071,0,0,0,0,0,0.0084,0.0098,0.0091,0.0091,0.009,0.0091,0.009,0.008,0.0068,0.0072,0.0059,0.0051,0.0038,0.0038,0.0036,0.0048,0.0027,0.0027,0.0028,0.0065,0.0068,0.0071,0,0,0,0,0,0,0.01,0.0097,0.0089,0.0102,0.0097,0.0088,0.0092,0.0081,0.0074,0.007,0.0054,0.0052,0.0053,0.0042,0.0042,0.0045,0.0031,0.0031,0.0059,0.0063,0.0065,0.0074,0.0031,0,0,0,0,0,0.0106,0.0114,0.0107,0.0116,0.0114,0.0101,0.01,0.0093,0.0084,0.008,0.0069,0.0058,0.0054,0.0051,0.0046,0.0049,0.0037,0.0054,0.0057,0.0059,0.0064,0.0054,0.0057,0.0028,0.0028,0.0028,0,0,0.0112,0.0114,0.0116,0.0119,0.0113,0.0122,0.0099,0.0101,0.0108,0.008,0.0084,0.0068,0.0056,0.006,0.006,0.0053,0.006,0.006,0.0062,0.0065,0.0055,0.0058,0.006,0.0029,0.0029,0.0029,0,0,0.0135,0.0131,0.0146,0.0146,0.0143,0.0138,0.0138,0.0128,0.0123,0.0124,0.0105,0.0095,0.0088,0.0082,0.0078,0.0092,0.0076,0.0088,0.0111,0.0101,0.0104,0.0106,0.0094,0.0095,0.0089,0.0089,0.0089,0,0.0143,0.0162,0.015,0.0165,0.017,0.0146,0.0164,0.0158,0.0147,0.0148,0.013,0.0116,0.0101,0.0108,0.0108,0.01,0.0089,0.0102,0.0106,0.0108,0.0109,0.0096,0.0097,0.0091,0.0091,0.0091,0.0091,0,0.0175,0.0191,0.0199,0.0212,0.0215,0.0226,0.0216,0.0216,0.0202,0.0195,0.0192,0.0166,0.0158,0.0149,0.0132,0.0137,0.0124,0.0112,0.0101,0.0115,0.01,0.0099,0.0094,0.0093,0.0093,0.0092,0,0,0.02,0.0219,0.0223,0.0238,0.0242,0.025,0.0261,0.0269,0.028,0.0256,0.0268,0.0243,0.0221,0.0214,0.0188,0.0171,0.0166,0.0146,0.0144,0.014,0.0143,0.0134,0.0132,0.0155,0.0155,0.0155,0.0129,0,0.0231,0.0272,0.0272,0.0308,0.0328,0.0314,0.033,0.0331,0.0323,0.0327,0.0293,0.0293,0.025,0.0244,0.0222,0.0184,0.0166,0.0174,0.0125,0.0124,0.0119,0.0132,0.0148,0.0126,0.0128,0.0128,0.0128,0,0.0267,0.0293,0.0334,0.0364,0.0371,0.0385,0.0405,0.0417,0.0413,0.0407,0.0391,0.0363,0.034,0.0297,0.0241,0.0248,0.0199,0.0161,0.0159,0.0138,0.0114,0.0112,0.0125,0.0127,0.0127,0.0127,0.0127,0,0.0299,0.0338,0.0374,0.0383,0.041,0.0424,0.0435,0.0441,0.0462,0.0455,0.0468,0.0428,0.0417,0.0351,0.0271,0.0257,0.0206,0.018,0.0125,0.0124,0.0121,0.012,0.0139,0.0139,0.0139,0.0139,0.0139,0,0.0337,0.0369,0.0391,0.0411,0.046,0.0459,0.0502,0.0507,0.0521,0.056,0.0511,0.0527,0.0429,0.0386,0.03,0.0218,0.0231,0.0134,0.0119,0.0135,0.0135,0.0121,0.012,0.0138,0.0138,0.0139,0.0139,0,0.0367,0.0383,0.0428,0.046,0.0477,0.0508,0.0552,0.058,0.0589,0.0636,0.0639,0.0608,0.0556,0.0455,0.0354,0.0268,0.0182,0.0147,0.017,0.0158,0.0095,0.0096,0.0083,0.0083,0.0082,0.0082,0.0082,0,0.039,0.0415,0.0463,0.0493,0.051,0.0556,0.0592,0.0614,0.0652,0.0692,0.0722,0.0685,0.0671,0.0518,0.0371,0.023,0.0197,0.0134,0.0106,0.0104,0.0091,0.0092,0.0093,0.0116,0.0116,0.0116,0.0116,0,0.0434,0.0442,0.0473,0.0534,0.0577,0.0634,0.0687,0.073,0.0768,0.0808,0.0849,0.0837,0.071,0.0574,0.0379,0.0275,0.0156,0.0129,0.0132,0.0128,0.0133,0.012,0.0121,0.0116,0.0116,0.0116,0.0116,0.0116,0.0462,0.0486,0.052,0.0578,0.0635,0.0704,0.0748,0.0807,0.0879,0.0931,0.0931,0.0912,0.0766,0.052,0.0353,0.0169,0.0177,0.009,0.0091,0.0092,0.0101,0.0104,0.0084,0.0084,0.0084,0.0084,0.0084,0,0.05,0.052,0.0566,0.063,0.0686,0.0713,0.0808,0.0842,0.0924,0.0974,0.0997,0.0851,0.0714,0.054,0.0284,0.0124,0.0106,0.0055,0.0072,0.0074,0.0075,0.0083,0.0061,0.006,0.006,0.0059,0,0,0.052,0.0561,0.0575,0.0662,0.0705,0.0775,0.0826,0.0885,0.0937,0.0966,0.0962,0.095,0.0767,0.0569,0.0364,0.0215,0.0171,0.0174,0.0211,0.0257,0.0259,0.0117,0.0134,0,0,0,0,0]}],[{"header":{"parameterUnit":"m.s-1","parameterCategory":2,"la1":30.2991,"la2":30.254,"lo1":-89.0895,"lo2":-89.0444,"dy":0.0017,"dx":0.0017,"nx":28,"ny":28,"refTime":"2023-09-21T21:00:00:Z","depth":"4","parameterNumber":2,"parameterNumberName":"U-component_of_CURRENTS"},"data":[0,0,0,0,0,0,0,0,0,0,0,0,0,0,0,0,0,0,0,0,0,0,0,0,0,0,0,0,0,0,0,0,0,0,0,0,0,0,0,0,0,0,0,0,0,0,0,0,0,0,0,0,0,0,0,0,0,0,0.096,0.0961,0,0.1005,0.1005,0.1006,0.1055,0.1056,0.1057,0.1057,0.112,0.1121,0.1122,0,0,0,0,0,0,0,0,0,0,0,0,0,0.0916,0.0917,0.096,0.0961,0.0961,0.1005,0.1005,0.1006,0.1055,0.1056,0.1057,0.1058,0.1119,0.1121,0.1122,0,0,0,0,0,0,0,0,0,0,0,0,0,0.0946,0.0917,0.096,0.0991,0.0994,0.1005,0.1005,0.1006,0.1055,0.1056,0.1057,0.1058,0.1119,0.1121,0.1122,0.1111,0,0,0.1127,0.1127,0,0,0,0,0,0,0,0,0.0944,0.0948,0.0986,0.0988,0.0992,0.1025,0.1013,0.1042,0.1055,0.1032,0.1057,0.1059,0.1089,0.1093,0.1099,0.1114,0.1117,0.1127,0.1128,0.1129,0.1129,0,0,0,0,0,0,0,0.0942,0.0946,0.0978,0.0986,0.099,0.1002,0.1007,0.1019,0.1055,0.1034,0.1038,0.1042,0.1091,0.1098,0.1101,0.1118,0.1127,0.1128,0.1129,0.113,0.1198,0.1198,0,0,0,0,0,0,0.0935,0.0944,0.0977,0.098,0.097,0.1002,0.1008,0.1014,0.1055,0.1062,0.1041,0.1044,0.1095,0.1099,0.1104,0.1164,0.1129,0.113,0.1131,0.1197,0.1198,0.1199,0,0,0,0,0,0,0.0933,0.0937,0.0975,0.0962,0.0968,0.1001,0.1008,0.1014,0.1046,0.1059,0.1067,0.1069,0.1096,0.1102,0.1137,0.1164,0.1131,0.1132,0.1196,0.1197,0.1198,0.1239,0,0,0,0,0,0,0.0932,0.0936,0.0951,0.0962,0.0968,0.0996,0.1007,0.1014,0.1045,0.105,0.1085,0.1091,0.1097,0.1134,0.1138,0.1165,0.1133,0.1195,0.1196,0.1198,0.1236,0.1241,0.1246,0,0,0,0,0,0.093,0.0938,0.0951,0.0956,0.0983,0.0996,0.1002,0.1028,0.1046,0.1061,0.1088,0.1091,0.1147,0.1136,0.1141,0.1169,0.1194,0.1196,0.1198,0.1234,0.124,0.1245,0,0,0,0,0,0,0.0928,0.0944,0.0959,0.0973,0.0992,0.1005,0.1022,0.104,0.1072,0.1084,0.1101,0.1108,0.1149,0.115,0.1137,0.1192,0.1171,0.1174,0.1198,0.1204,0.1208,0.1202,0.1135,0,0,0,0,0,0.0933,0.0944,0.0961,0.0975,0.0986,0.1009,0.1023,0.104,0.1063,0.108,0.1106,0.1131,0.1155,0.1173,0.119,0.1218,0.1226,0.1239,0.1244,0.1248,0.1246,0.1287,0.1296,0.1205,0.1205,0.1205,0,0,0.0934,0.0946,0.0952,0.0976,0.0993,0.101,0.1021,0.1045,0.1069,0.108,0.1129,0.1149,0.1166,0.1202,0.122,0.121,0.1278,0.125,0.1254,0.1249,0.129,0.1299,0.1307,0.1206,0.1206,0.1206,0,0,0.0933,0.0955,0.0964,0.0982,0.1009,0.1022,0.1034,0.1064,0.1091,0.113,0.1148,0.1184,0.1222,0.124,0.1253,0.129,0.13,0.1302,0.1324,0.1365,0.1373,0.138,0.1403,0.1412,0.1305,0.1305,0.1306,0,0.0939,0.0953,0.097,0.0985,0.1004,0.1031,0.1049,0.1075,0.1116,0.1142,0.1153,0.1222,0.1238,0.1281,0.1298,0.1302,0.1323,0.1303,0.1372,0.1379,0.1385,0.1408,0.1417,0.1308,0.1307,0.1307,0.1307,0,0.094,0.0964,0.0971,0.1001,0.1022,0.1042,0.1074,0.111,0.1147,0.1175,0.1235,0.1261,0.1303,0.1317,0.1322,0.1377,0.1376,0.1373,0.1358,0.1397,0.1418,0.1427,0.1311,0.131,0.1309,0.1309,0,0,0.0923,0.0964,0.0972,0.0992,0.1035,0.1049,0.1094,0.1139,0.1179,0.1226,0.1277,0.1323,0.1347,0.1361,0.1378,0.1412,0.1478,0.1417,0.1418,0.1441,0.1567,0.1459,0.1458,0.1497,0.1499,0.15,0.1564,0,0.0926,0.0954,0.0977,0.1014,0.1033,0.1076,0.1114,0.116,0.1211,0.1267,0.1307,0.1361,0.1361,0.1394,0.1429,0.147,0.1503,0.146,0.1525,0.1526,0.1427,0.1465,0.1505,0.1571,0.1573,0.1574,0.1575,0,0.0922,0.0944,0.0977,0.1027,0.104,0.1071,0.1141,0.118,0.1257,0.13,0.1359,0.1395,0.1458,0.1451,0.1537,0.1515,0.1544,0.1566,0.157,0.1458,0.1434,0.1523,0.1591,0.159,0.1589,0.1587,0.1586,0,0.0897,0.0946,0.0972,0.099,0.1047,0.1082,0.1122,0.1197,0.1241,0.133,0.1378,0.1445,0.1496,0.1545,0.1596,0.1582,0.1682,0.1666,0.159,0.1583,0.1644,0.1635,0.1722,0.1721,0.1721,0.1721,0.1721,0,0.0882,0.0906,0.0968,0.0982,0.1026,0.1074,0.1134,0.1187,0.1269,0.1318,0.1397,0.1443,0.1528,0.1591,0.1621,0.1631,0.1706,0.1596,0.1594,0.1659,0.1651,0.165,0.1641,0.1724,0.1723,0.1723,0.1722,0,0.0842,0.0882,0.0919,0.0989,0.1014,0.1048,0.1136,0.1176,0.1265,0.1334,0.1368,0.1469,0.1544,0.1612,0.1694,0.1654,0.1681,0.1666,0.1733,0.1734,0.1547,0.1539,0.1578,0.1575,0.1572,0.157,0.1568,0,0.0816,0.0833,0.0916,0.0941,0.0977,0.1036,0.1075,0.1165,0.1204,0.1333,0.1353,0.1464,0.1519,0.1551,0.1622,0.1664,0.1648,0.1643,0.1581,0.1538,0.1534,0.153,0.1526,0.1564,0.1563,0.1562,0.1561,0,0.0769,0.0813,0.0846,0.0903,0.095,0.0987,0.1049,0.1071,0.1168,0.1264,0.1312,0.1357,0.1432,0.1483,0.1531,0.1556,0.1633,0.1614,0.1619,0.156,0.1521,0.1518,0.1518,0.1552,0.1553,0.1554,0.1555,0,0.0742,0.0758,0.0814,0.0856,0.0903,0.0917,0.0962,0.1003,0.1052,0.1187,0.1199,0.1318,0.1411,0.1428,0.1474,0.1489,0.146,0.1405,0.142,0.1431,0.1353,0.1279,0.1238,0,0,0,0,0,0.0712,0.0724,0.0759,0.0796,0.0836,0.0866,0.0929,0.0973,0.107,0.1072,0.113,0.1193,0.1253,0.1314,0.1301,0.141,0.1468,0.1388,0.1411,0.1499,0.151,0.1431,0,0,0,0,0,0,0.069,0.0722,0.0739,0.0729,0.0744,0.0777,0.0817,0.0885,0.0885,0.0994,0.1035,0.1117,0.1198,0.1255,0.128,0.1298,0.1285,0.1461,0.1457,0.1493,0.1503,0.1512,0.1434,0,0,0,0,0]},{"header":{"parameterUnit":"m.s-1","parameterCategory":2,"la1":30.2991,"la2":30.254,"lo1":-89.0895,"lo2":-89.0444,"dy":0.0017,"dx":0.0017,"nx":28,"ny":28,"refTime":"2023-09-21T21:00:00:Z","depth":"4","parameterNumber":3,"parameterNumberName":"V-component_of_CURRENTS"},"data":[0,0,0,0,0,0,0,0,0,0,0,0,0,0,0,0,0,0,0,0,0,0,0,0,0,0,0,0,0,0,0,0,0,0,0,0,0,0,0,0,0,0,0,0,0,0,0,0,0,0,0,0,0,0,0,0,0,0,0.0136,0.0136,0,0.0126,0.0126,0.0126,0.011,0.011,0.0109,0.0109,0.0094,0.0094,0.0094,0,0,0,0,0,0,0,0,0,0,0,0,0,0.0123,0.0124,0.0136,0.0136,0.0135,0.0126,0.0126,0.0126,0.011,0.011,0.0109,0.0109,0.0094,0.0094,0.0094,0,0,0,0,0,0,0,0,0,0,0,0,0,0.0123,0.0124,0.0136,0.0126,0.0125,0.0126,0.0126,0.0126,0.011,0.011,0.0109,0.0109,0.0094,0.0094,0.0093,0.0102,0,0,0.0093,0.0093,0,0,0,0,0,0,0,0,0.0123,0.0124,0.0128,0.0127,0.0126,0.0119,0.0116,0.0118,0.011,0.0116,0.0109,0.0109,0.0102,0.0101,0.0101,0.0101,0.01,0.0093,0.0093,0.0093,0.0093,0,0,0,0,0,0,0,0.0123,0.0124,0.0132,0.0128,0.0126,0.0117,0.0116,0.0116,0.0112,0.0116,0.0114,0.0113,0.0101,0.0101,0.01,0.01,0.0093,0.0093,0.0093,0.0093,0.0103,0.0103,0,0,0,0,0,0,0.0126,0.0124,0.0132,0.0132,0.0123,0.0117,0.0117,0.0122,0.0112,0.011,0.0114,0.0112,0.0101,0.01,0.0099,0.0116,0.0093,0.0093,0.0092,0.0103,0.0103,0.0103,0,0,0,0,0,0,0.0125,0.0127,0.0133,0.0127,0.0127,0.0118,0.0123,0.0122,0.012,0.011,0.0108,0.0114,0.0101,0.01,0.0103,0.0115,0.0093,0.0092,0.0102,0.0103,0.0103,0.0144,0,0,0,0,0,0,0.0125,0.0127,0.0133,0.0128,0.0128,0.0138,0.0124,0.0122,0.012,0.0118,0.011,0.0108,0.01,0.0103,0.0102,0.0114,0.0092,0.0102,0.0102,0.0103,0.0142,0.0146,0.0149,0,0,0,0,0,0.0125,0.0138,0.0134,0.0135,0.0136,0.0139,0.0138,0.013,0.0121,0.0126,0.0118,0.0108,0.0107,0.0103,0.0103,0.0115,0.0101,0.0102,0.0103,0.0141,0.0145,0.0149,0,0,0,0,0,0,0.0139,0.0138,0.0133,0.0146,0.0143,0.0136,0.0141,0.0132,0.013,0.0129,0.0115,0.0114,0.012,0.0111,0.0107,0.0118,0.0101,0.0102,0.013,0.0135,0.0138,0.0147,0.0092,0,0,0,0,0,0.0145,0.0154,0.0148,0.0159,0.0158,0.0149,0.0149,0.0144,0.014,0.0138,0.013,0.0124,0.0123,0.0124,0.012,0.013,0.0111,0.0135,0.0139,0.0142,0.0148,0.0128,0.0131,0.0106,0.0106,0.0106,0,0,0.0152,0.0154,0.0159,0.0163,0.0159,0.0168,0.0148,0.0152,0.0162,0.0138,0.0147,0.0136,0.0128,0.0137,0.0139,0.0132,0.0138,0.0143,0.0146,0.015,0.0129,0.0132,0.0134,0.0107,0.0107,0.0107,0,0,0.0175,0.0174,0.0188,0.0189,0.0189,0.0185,0.0186,0.018,0.0178,0.0186,0.017,0.0167,0.0166,0.0163,0.0162,0.0182,0.0156,0.0179,0.0207,0.0188,0.019,0.0191,0.0166,0.0165,0.0182,0.0182,0.0182,0,0.0184,0.0201,0.0192,0.0206,0.0212,0.0194,0.021,0.0209,0.0205,0.0208,0.0195,0.0191,0.0181,0.0193,0.0199,0.0191,0.0172,0.0193,0.0193,0.0194,0.0194,0.0168,0.0167,0.0184,0.0184,0.0184,0.0184,0,0.0215,0.0229,0.0237,0.0249,0.0255,0.0266,0.0262,0.0266,0.0258,0.0254,0.0259,0.0243,0.024,0.0235,0.0225,0.0229,0.021,0.0198,0.0183,0.0199,0.0171,0.0168,0.0187,0.0187,0.0186,0.0186,0,0,0.0235,0.0255,0.0258,0.0272,0.028,0.0288,0.0304,0.0313,0.0323,0.0314,0.0324,0.0318,0.03,0.0297,0.0278,0.0263,0.0248,0.0236,0.0234,0.0214,0.02,0.0186,0.0181,0.0234,0.0233,0.0233,0.0176,0,0.0261,0.0296,0.0301,0.0334,0.0349,0.0345,0.0364,0.0369,0.0364,0.0368,0.035,0.0351,0.0327,0.0323,0.0306,0.0263,0.0244,0.0265,0.0186,0.0183,0.0171,0.0179,0.0233,0.0174,0.0174,0.0173,0.0173,0,0.0289,0.0309,0.0347,0.0376,0.0383,0.0403,0.0424,0.0439,0.0438,0.0433,0.0426,0.0403,0.0387,0.0359,0.0299,0.0311,0.0262,0.0225,0.0221,0.0194,0.0165,0.0155,0.0168,0.0168,0.0168,0.0169,0.0169,0,0.0304,0.0341,0.0375,0.0385,0.0415,0.0434,0.045,0.0459,0.0477,0.0472,0.0475,0.0446,0.0432,0.0373,0.0298,0.0295,0.0221,0.0206,0.0147,0.0145,0.0156,0.0155,0.0162,0.0162,0.0162,0.0163,0.0163,0,0.0328,0.0355,0.0386,0.0404,0.0447,0.046,0.05,0.0507,0.0522,0.0542,0.051,0.0508,0.0434,0.0381,0.0309,0.0221,0.0228,0.0155,0.0133,0.0174,0.0175,0.0154,0.0153,0.016,0.0161,0.0161,0.0162,0,0.0339,0.036,0.0399,0.0438,0.0456,0.0486,0.0536,0.056,0.0569,0.0591,0.0592,0.0554,0.0485,0.0403,0.0301,0.0238,0.0153,0.0119,0.0168,0.0149,0.0085,0.0088,0.0049,0.0048,0.0048,0.0047,0.0046,0,0.0348,0.0371,0.0423,0.0449,0.0471,0.0518,0.0551,0.0581,0.0605,0.0615,0.0624,0.0572,0.0532,0.0382,0.0291,0.0155,0.0133,0.0083,0.0088,0.0093,0.0075,0.0079,0.0082,0.0045,0.0045,0.0045,0.0045,0,0.0364,0.0384,0.0412,0.0465,0.0508,0.0558,0.0605,0.0626,0.0656,0.0666,0.0643,0.057,0.0492,0.0378,0.0273,0.0175,0.0113,0.0074,0.0075,0.0079,0.0087,0.0072,0.0076,0.0042,0.0042,0.0043,0.0043,0,0.0373,0.0392,0.0431,0.0476,0.0531,0.0579,0.0606,0.0633,0.066,0.0669,0.0657,0.0576,0.0533,0.0388,0.0291,0.0195,0.0167,0.0125,0.0123,0.0125,0.0164,0.0186,0.0156,0,0,0,0,0,0.0381,0.0401,0.0439,0.0487,0.0541,0.0573,0.0634,0.0656,0.0684,0.067,0.0666,0.0592,0.045,0.0392,0.0293,0.0271,0.0147,0.015,0.0098,0.0027,0.003,0.0062,0,0,0,0,0,0,0.0386,0.0421,0.0433,0.0489,0.052,0.0582,0.062,0.0641,0.0635,0.0646,0.0576,0.055,0.0418,0.0503,0.0284,0.0257,0.0206,0.0091,0.0088,0.0026,0.0028,0.0031,0.0065,0,0,0,0,0]}]]